Regional Weather Roundup
Issued by NWS

Home | Current Version | Previous Version | Text Only | Print | Product List | Glossary Off
Versions: 1 2 3 4 5 6 7 8 9 10 11 12 13 14 15 16 17 18 19 20 21 22 23 24 25 26 27 28 29 30 31 32 33 34 35 36 37 38 39 40 41 42 43 44 45 46 47 48 49 50

000
ASUS43 KFSD 250110
RWRSD

WEATHER ROUNDUP FOR SOUTH DAKOTA
NATIONAL WEATHER SERVICE SIOUX FALLS SD
700 PM CST WED DEC 24 2014

NOTE: "FAIR" INDICATES FEW OR NO CLOUDS BELOW 12,000 FEET WITH NO
SIGNIFICANT WEATHER AND/OR OBSTRUCTIONS TO VISIBILITY.


SDZ001>005-009-010-012>017-250200-
NORTHWEST AND NORTH CENTRAL SOUTH DAKOTA

CITY           SKY/WX    TMP DP  RH WIND       PRES   REMARKS
BUFFALO          N/A     36  29  75 NW10      29.38F
FAITH            N/A     33  25  72 MISG      29.45F
MOBRIDGE       MOCLDY    26  21  81 SE7       29.46F WCI  18
$$

SDZ012>016-024>037-041>051-057-063-072>074-250200-
SOUTHWEST AND SOUTH CENTRAL SOUTH DAKOTA

CITY           SKY/WX    TMP DP  RH WIND       PRES   REMARKS
RAPID CTY ARPT CLOUDY    33  25  72 CALM      29.45F
PIERRE         MOCLDY    24  19  81 SE7       29.50F WCI  16
CUSTER         CLOUDY    32  18  56 W8        29.48F WCI  25
ELLSWORTH AFB  CLOUDY    33  26  75 SW2       29.44F
PHILIP         MOCLDY    30  25  81 CALM      29.49F
PINE RIDGE     CLOUDY    31  23  72 SW7       29.50F WCI  24
SPEARFISH      FAIR      36  27  69 SE5       29.45F
WINNER         FAIR      35  23  61 SW16      29.51F WCI  25
$$

SDZ004>011-016>023-039-040-250200-
NORTHEAST SOUTH DAKOTA

CITY           SKY/WX    TMP DP  RH WIND       PRES   REMARKS
ABERDEEN       CLOUDY    28  25  88 S15       29.54F WCI  16
WATERTOWN      CLOUDY    25  23  92 S9        29.55F WCI  15
$$

SDZ017-020-022-023-036>040-048>070-250200-
SOUTHEAST SOUTH DAKOTA

CITY           SKY/WX    TMP DP  RH WIND       PRES   REMARKS
SIOUX FALLS    CLOUDY    26  25  96 SW9       29.64F FOG     WCI  17
HURON          PTCLDY    26  24  92 S10       29.58F WCI  16
CHAMBERLAIN    PTCLDY    24  21  87 SE7       29.54F WCI  16
MITCHELL       MOCLDY    27  25  92 S9        29.61F WCI  18
YANKTON        PTCLDY    25  21  86 SE5       29.67S WCI  19
$$

ABBREVIATIONS USED IN REMARKS
   TC - TEMPERATURE IN CELSIUS
  WCI - WIND CHILL INDEX
   HX - HEAT INDEX
  VSB - VISIBILITY




USA.gov is the U.S. government's official web portal to all federal, state and local government web resources and services.